Weather History for Covington, KY

Change the Weather History Date:

Tuesday, December 24, 2013

  Actual Average Record
Temperature  
Mean Temperature 20 °F 32 °F  
Max Temperature 26 °F 39 °F 70 °F (1964)
Min Temperature 14 °F 25 °F -12 °F (1983)
Degree Days  
Heating Degree Days 45 33  
Month to date heating degree days 695 724  
Since 1 July heating degree days 1731 1684  
Cooling Degree Days 0 0  
Month to date cooling degree days 0 0  
Year to date cooling degree days 1150 1121  
Moisture  
Dew Point 11 °F    
Average Humidity 73    
Maximum Humidity 88    
Minimum Humidity 57    
Precipitation  
Precipitation T in 0.11 in 1.68 in (1875)
Month to date precipitation 4.64 2.61  
Year to date precipitation 49.21 41.76  
Snow  
Snow 0.20 in 0.20 in 1.80 in (1980)
Month to date snowfall 10.3 3.4  
Since 1 July snowfall 12.7 4.2  
Snow Depth T in    
Sea Level Pressure  
Sea Level Pressure 30.49 in    
Wind  
Wind Speed 7 mph (WNW)    
Max Wind Speed 21 mph    
Max Gust Speed 26 mph    
Visibility 8 miles    
Events Snow    
T = Trace of Precipitation, MM = Missing Value Source: NWS Daily Summary

Daily Weather History Graph

Daily Weather History Graph

Search for Another Location

Airport:

Trip Planner

Search our weather history database for the weather conditions in past years. The results will help you decide how hot, cold, wet, or windy it might be!

Date:

Astronomy

Dec. 24, 2013 Rise Set
Actual Time 7:55 AM EST 5:21 PM EST
Civil Twilight 7:25 AM EST 5:51 PM EST
Nautical Twilight 6:51 AM EST 6:25 PM EST
Astronomical Twilight 6:19 AM EST 6:57 PM EST
Moon No Moon Rise 11:52 AM EST (12/24)
Length of Visible Light 10h 25m
Length of Day
9h 25m
Waning Gibbous, 59% of the Moon is Illuminated
Dec 24
Waning Gibbous
Dec 25
Last Quarter
Jan 1
New
Jan 7
First Quarter
Jan 15
Full

Hourly Weather History & Observations

Time (EST) Temp. Windchill Dew Point Humidity Pressure Visibility Wind Dir Wind Speed Gust Speed Precip Events Conditions
12:52 AM 25.0 °F 14.8 °F 18.0 °F 75% 30.39 in 10.0 mi West 10.4 mph - N/A   Overcast
1:52 AM 25.0 °F 15.5 °F 19.0 °F 78% 30.38 in 3.0 mi West 9.2 mph - 0.00 in Snow Light Snow
1:55 AM 24.8 °F 15.3 °F 19.4 °F 80% 30.36 in 2.5 mi West 9.2 mph - 0.00 in Snow Light Snow
2:30 AM 24.8 °F 13.4 °F 19.4 °F 80% 30.36 in 1.5 mi WNW 12.7 mph - 0.00 in Snow Light Snow
2:52 AM 23.0 °F 11.7 °F 19.0 °F 85% 30.40 in 1.8 mi NW 11.5 mph - 0.00 in Snow Light Snow
3:15 AM 23.0 °F 13.1 °F 19.4 °F 86% 30.38 in 2.5 mi WNW 9.2 mph - 0.00 in Snow Light Snow
3:37 AM 21.2 °F 7.8 °F 15.8 °F 80% 30.38 in 2.5 mi NW 15.0 mph - 0.00 in Snow Light Snow
3:52 AM 21.0 °F 7.6 °F 15.1 °F 78% 30.42 in 4.0 mi WNW 15.0 mph - 0.00 in Snow Light Snow
4:52 AM 19.9 °F 4.8 °F 10.9 °F 68% 30.42 in 10.0 mi NW 18.4 mph - 0.00 in   Overcast
5:20 AM 17.6 °F 4.3 °F 8.6 °F 68% 30.40 in 10.0 mi WNW 12.7 mph - N/A   Partly Cloudy
5:52 AM 16.0 °F 1.1 °F 7.0 °F 68% 30.45 in 10.0 mi WNW 15.0 mph 21.9 mph N/A   Partly Cloudy
6:52 AM 14.0 °F 1.2 °F 8.1 °F 77% 30.48 in 10.0 mi WNW 10.4 mph - N/A   Partly Cloudy
7:08 AM 15.8 °F 2.7 °F 8.6 °F 73% 30.45 in 10.0 mi WNW 11.5 mph - N/A   Mostly Cloudy
7:52 AM 15.1 °F 0.5 °F 9.0 °F 77% 30.49 in 9.0 mi WNW 13.8 mph - 0.00 in Snow Light Snow
8:52 AM 14.0 °F 0.5 °F 7.0 °F 74% 30.52 in 7.0 mi WNW 11.5 mph - 0.00 in Snow Light Snow
9:29 AM 14.0 °F -1.4 °F 8.6 °F 79% 30.50 in 2.5 mi WNW 15.0 mph - 0.00 in Snow Light Snow
9:38 AM 14.0 °F -1.4 °F 6.8 °F 73% 30.51 in 5.0 mi WNW 15.0 mph - 0.00 in Snow Light Snow
9:52 AM 14.0 °F 2.0 °F 7.0 °F 74% 30.55 in 5.0 mi NW 9.2 mph - 0.00 in Snow Light Snow
10:52 AM 16.0 °F 4.4 °F 9.0 °F 74% 30.56 in 4.0 mi WNW 9.2 mph - 0.00 in Snow Light Snow
11:52 AM 17.1 °F 5.8 °F 8.1 °F 68% 30.57 in 9.0 mi WNW 9.2 mph - 0.00 in   Mostly Cloudy
12:52 PM 19.9 °F 13.4 °F 9.0 °F 62% 30.55 in 10.0 mi Variable 4.6 mph - N/A   Scattered Clouds
1:52 PM 21.0 °F 12.4 °F 10.0 °F 63% 30.55 in 10.0 mi NW 6.9 mph - N/A   Scattered Clouds
2:52 PM 21.9 °F 15.7 °F 10.0 °F 60% 30.54 in 10.0 mi NW 4.6 mph - N/A   Partly Cloudy
3:52 PM 21.9 °F - 9.0 °F 58% 30.55 in 10.0 mi Calm Calm - N/A   Partly Cloudy
4:52 PM 21.0 °F - 9.0 °F 60% 30.56 in 10.0 mi Calm Calm - N/A   Clear
5:52 PM 19.9 °F - 9.0 °F 62% 30.56 in 10.0 mi Calm Calm - N/A   Clear
6:52 PM 19.9 °F - 10.0 °F 65% 30.56 in 10.0 mi Calm Calm - N/A   Clear
7:52 PM 18.0 °F - 10.9 °F 74% 30.56 in 10.0 mi Calm Calm - N/A   Clear
8:52 PM 19.0 °F - 12.0 °F 74% 30.55 in 10.0 mi Calm Calm - N/A   Partly Cloudy
9:52 PM 18.0 °F - 10.9 °F 74% 30.55 in 10.0 mi Calm Calm - N/A   Partly Cloudy
11:52 PM 19.0 °F 10.0 °F 12.0 °F 74% 30.51 in 10.0 mi ESE 6.9 mph - N/A   Mostly Cloudy